Location: Unspecified
(50.8198°N, 0.0000°E)
Time: 14:42:18
(UTC+00:00)

SL-16 DEB - Visible Passes

Search period start: 04 April 2026 00:00
Search period end: 14 April 2026 00:00
Orbit: 800 x 905 km, 70.7° (Epoch: 17 December)

Date Brightness Start Highest point End Pass type
(mag) Time Alt. Az. Time Alt. Az. Time Alt. Az.
4 Apr ? 03:29:52 15° S 03:34:43 54° ESE 03:40:23 10° NE visible
5 Apr ? 03:18:34 19° S 03:22:46 54° ESE 03:28:26 10° NE visible
6 Apr ? 03:07:13 23° S 03:10:49 54° ESE 03:16:29 10° NE visible
6 Apr ? 04:49:57 10° WSW 04:55:23 36° NW 05:00:43 10° NNE visible
7 Apr ? 02:55:47 27° S 02:58:52 54° ESE 03:04:31 10° NE visible
7 Apr ? 04:38:02 10° WSW 04:43:26 36° NW 04:48:46 10° NNE visible
8 Apr ? 02:44:19 31° S 02:46:54 55° ESE 02:52:34 10° NE visible
8 Apr ? 04:26:21 11° WSW 04:31:29 36° NW 04:36:48 10° NNE visible
9 Apr ? 02:32:47 36° S 02:34:57 55° ESE 02:40:36 10° NE visible
9 Apr ? 04:14:49 13° WSW 04:19:32 36° NW 04:24:50 10° NNE visible
10 Apr ? 02:21:12 40° SSE 02:22:59 55° ESE 02:28:39 10° NE visible
10 Apr ? 04:03:14 15° WSW 04:07:35 35° NW 04:12:52 10° NNE visible
11 Apr ? 02:09:35 44° SSE 02:11:02 56° ESE 02:16:41 10° NE visible
11 Apr ? 03:51:37 16° WSW 03:55:38 35° NW 04:00:54 10° NNE visible
12 Apr ? 01:57:56 48° SSE 01:59:04 56° ESE 02:04:43 10° NE visible
12 Apr ? 03:39:58 18° WSW 03:43:40 35° NW 03:48:56 10° NNE visible
13 Apr ? 01:46:15 51° SE 01:47:06 56° ESE 01:52:45 10° NE visible
13 Apr ? 03:28:16 19° W 03:31:43 35° NW 03:36:57 10° NNE visible
